Station NTBC1 - 9411340 - Santa Barbara, CA Image indicating link to RSS feed of recent meteorological observations for station NTBC1


Conditions at NTBC1 as of
(3:36 am PDT)
1036 GMT on 04/14/2024:
     

Click on the graph icon in the table below to see a time series plot of the last five days of that observation.

5-day plot - Wind Direction Wind Direction (WDIR): NE ( 50 deg true )
5-day plot - Wind Speed Wind Speed (WSPD): 7.0 kts
5-day plot - Wind Gust Wind Gust (GST): 9.9 kts
5-day plot - Atmospheric Pressure Atmospheric Pressure (PRES):30.08 in
5-day plot - Wind Speed at 10 Meters Wind Speed at 10 meters (WSPD10M): 7.8 kts
5-day plot - Wind Speed at 20 Meters Wind Speed at 20 meters (WSPD20M): 7.8 kts
5-day plot -  Wind Speed, Wind Gust and Atmospheric Pressure Combined plot of Wind Speed, Gust, and Air Pressure
NOS Water Level Observation Network Water Level
Previous observations
TIME
(PDT)
5-day plot - Wind Direction
WDIR
 
5-day plot - Wind Speed
WSPD
kts
5-day plot - Wind Gust
GST
kts
5-day plot - Wave Height
WVHT
ft
5-day plot - Dominant Wave Period
DPD
sec
5-day plot - Average Wave Period
APD
sec
5-day plot - Mean Wave Direction
MWD
 
5-day plot - Atmospheric Pressure
PRES
in
5-day plot - Pressure Tendency
PTDY
in
5-day plot - Air Temperature
ATMP
°F
5-day plot - Water Temperature
WTMP
°F
5-day plot - Dew Point
DEWP
°F
5-day plot - Salinity
SAL
psu
5-day plot - Visibility
VIS
nmi
5-day plot - Tide (above MLLW)
TIDE
ft
2024-04-14 03:30 am NE 7.0 9.9----30.08-------
2024-04-14 03:24 am NE 7.0 8.9----30.08-------
2024-04-14 03:18 am NE 6.0 8.0----30.09-------
2024-04-14 03:12 am NE 6.0 8.0----30.09-------
2024-04-14 03:06 am NE 7.0 8.9----30.09-------
2024-04-14 03:00 am NE 7.0 8.9----30.08+0.00------
2024-04-14 02:54 amENE 7.0 8.9----30.09-------
2024-04-14 02:48 amENE 7.0 8.9----30.09-------
2024-04-14 02:42 am E 7.0 8.9----30.09-------
2024-04-14 02:36 amENE 6.0 8.9----30.08- 50.9-----
2024-04-14 02:30 amENE 7.0 9.9----30.08- 50.7-----
2024-04-14 02:24 amENE 5.1 7.0----30.09- 50.5-----
2024-04-14 02:18 amENE 5.1 7.0----30.09- 50.7-----
2024-04-14 02:12 amENE 5.1 8.9----30.09- 50.5-----
2024-04-14 02:06 am NE 6.0 8.0----30.09- 50.4-----
2024-04-14 02:00 am NE 7.0 8.9----30.09+0.01 50.0-----
2024-04-14 01:54 amNNE 5.1 7.0----30.09- 49.8-----
2024-04-14 01:48 amNNE 6.0 8.0----30.09- 49.6-----
2024-04-14 01:42 amNNE 5.1 7.0----30.09- 49.5-----
2024-04-14 01:36 am N 5.1 6.0----30.09- 48.7-----
2024-04-14 01:30 amNNE 1.9 2.9----30.09- 48.9-----
2024-04-14 01:24 amNNE 1.9 6.0----30.09- 49.6-----
2024-04-14 01:18 amNNE 4.1 5.1----30.09- 49.8-----
2024-04-14 01:12 am NE 5.1 6.0----30.09- 49.6-----
2024-04-14 01:06 am NE 2.9 4.1----30.09- 48.7-----
2024-04-14 01:00 amNNE 1.0 1.9----30.09+0.01 48.2-----
2024-04-14 12:54 amNNE 1.9 4.1----30.08- 47.8-----
2024-04-14 12:48 am N 4.1 4.1----30.08- 47.3-----
2024-04-14 12:42 am N 2.9 4.1----30.08- 47.3-----
2024-04-14 12:36 amNNE 4.1 5.1----30.08- 47.5-----
2024-04-14 12:30 amNNE 4.1 5.1----30.08- 47.3-----
2024-04-14 12:24 am N 1.9 2.9----30.09- 47.1-----
2024-04-14 12:18 am N 2.9 4.1----30.08- 46.9-----
2024-04-14 12:12 am N 4.1 4.1----30.08- 46.6-----
2024-04-14 12:06 am N 4.1 5.1----30.08- 46.6-----
2024-04-14 12:00 am N 4.1 5.1----30.08+0.01 46.4-----
2024-04-13 11:54 pm N 4.1 5.1----30.08- 46.6-----
2024-04-13 11:48 pm N 4.1 5.1----30.08- 46.8-----
2024-04-13 11:42 pm N 2.9 4.1----30.08- 46.8-----
2024-04-13 11:36 pm N 2.9 2.9----30.08- 46.8-----
2024-04-13 11:30 pm N 1.9 2.9----30.08- 46.8-----
2024-04-13 11:24 pmNNW 2.9 2.9----30.08- 46.9-----
2024-04-13 11:18 pmNNW 1.9 4.1----30.08- 46.8-----
2024-04-13 11:12 pm N 1.9 2.9----30.07- 46.9-----
2024-04-13 11:06 pmNNW 2.9 2.9----30.07- 46.9-----
2024-04-13 11:00 pm N 2.9 2.9----30.07+0.03 47.1-----
2024-04-13 10:54 pmNNW 2.9 4.1----30.07- 46.8-----
2024-04-13 10:48 pm N 2.9 2.9----30.07- 46.9-----
2024-04-13 10:42 pm N 1.9 2.9----30.07- 47.3-----
2024-04-13 10:36 pm N 2.9 4.1----30.07- 47.5-----
2024-04-13 10:30 pm N 1.9 4.1----30.07- 47.8-----
2024-04-13 10:24 pm N 4.1 4.1----30.07- 48.0-----
2024-04-13 10:18 pmNNE 1.9 2.9----30.07- 48.2-----
2024-04-13 10:12 pm N 2.9 2.9----30.07- 48.0-----
2024-04-13 10:06 pmNNE 1.0 1.9----30.07- 48.0-----
2024-04-13 10:00 pm- 0.0 1.9----30.08+0.05 48.0-----
2024-04-13 09:54 pm N 1.9 4.1----30.08- 48.4-----
2024-04-13 09:48 pm N 4.1 4.1----30.08- 48.6-----
2024-04-13 09:42 pm N 4.1 5.1----30.08- 48.7-----
2024-04-13 09:36 pmNNW 2.9 4.1----30.08- 48.9-----
2024-04-13 09:30 pmNNW 4.1 5.1----30.08- 49.1-----
2024-04-13 09:24 pmNNW 4.1 5.1----30.07- 49.1-----
2024-04-13 09:18 pmNNW 4.1 6.0----30.07- 49.5-----
2024-04-13 09:12 pmNNW 4.1 5.1----30.07- 49.3-----
2024-04-13 09:06 pmNNW 4.1 5.1----30.07- 49.5-----
2024-04-13 09:00 pmNNW 5.1 5.1----30.06+0.03 49.5-----
2024-04-13 08:54 pmNNW 5.1 6.0----30.06- 49.6-----
2024-04-13 08:48 pmNNW 5.1 5.1----30.06- 49.6-----
2024-04-13 08:42 pmNNW 2.9 4.1----30.06- 49.6-----
2024-04-13 08:36 pmNNW 4.1 4.1----30.05- 50.2-----
2024-04-13 08:30 pmNNW 2.9 4.1----30.05- 50.2-----
2024-04-13 08:24 pm N 2.9 2.9----30.05- 50.5-----
2024-04-13 08:18 pm W 1.0 2.9----30.05- 51.1-----
2024-04-13 08:12 pmWSW 1.9 2.9----30.05- 51.3-----
2024-04-13 08:06 pmWNW 1.0 4.1----30.04- 51.6-----
2024-04-13 08:00 pm- 0.0 1.9----30.04+0.01 51.8-----
2024-04-13 07:54 pmWNW 1.9 4.1----30.04- 52.2-----
2024-04-13 07:48 pm N 2.9 4.1----30.04- 51.8-----
2024-04-13 07:42 pm N 2.9 4.1----30.03- 52.0-----
2024-04-13 07:36 pm N 2.9 2.9----30.03- 51.8-----
2024-04-13 07:30 pm NW 1.0 4.1----30.03- 52.0-----
2024-04-13 07:24 pm N 2.9 4.1----30.03- 51.8-----
2024-04-13 07:18 pmWSW 1.0 1.9----30.02- 52.5-----
2024-04-13 07:12 pm S 1.0 1.9----30.02- 52.2-----
2024-04-13 07:06 pm- 0.0 1.9----30.02- 52.0-----
2024-04-13 07:00 pm- 0.0 2.9----30.02-0.04 51.8-----
2024-04-13 06:54 pmSSE 1.0 1.9----30.02- 51.8-----
2024-04-13 06:48 pm SE 1.0 1.9----30.02- 52.0-----
2024-04-13 06:42 pm SE 1.0 1.9----30.02- 52.3-----
2024-04-13 06:36 pmSSE 1.0 1.9----30.03- 53.1-----
2024-04-13 06:30 pm- 0.0 1.0----30.03- 53.4-----
2024-04-13 06:24 pmNNW 1.0 2.9----30.03- 52.7-----
2024-04-13 06:18 pm NW 1.9 5.1----30.03- 52.2-----
2024-04-13 06:12 pmNNW 2.9 4.1----30.03- 51.3-----
2024-04-13 06:06 pmNNE 2.9 4.1----30.03- 50.9-----
2024-04-13 06:00 pmNNW 1.9 2.9----30.03+0.00 50.7-----
2024-04-13 05:54 pmNNE 2.9 2.9----30.03- 50.9-----
2024-04-13 05:48 pm- 0.0 4.1----30.04- 50.9-----
2024-04-13 05:42 pmWNW 1.9 5.1----30.03- 51.1-----
2024-04-13 05:36 pm W 4.1 5.1----30.03- 50.9-----
2024-04-13 05:30 pm SW 4.1 5.1----30.03- 50.7-----
2024-04-13 05:24 pmWNW 2.9 4.1----30.03- 50.5-----
2024-04-13 05:18 pmWSW 1.9 2.9----30.03- 50.4-----
2024-04-13 05:12 pm W 1.9 2.9----30.03- 50.4-----
2024-04-13 05:06 pmNNE 1.0 1.9----30.03- 50.0-----
2024-04-13 05:00 pm N 1.9 4.1----30.03+0.03 49.8-----
2024-04-13 04:54 pm- 0.0 1.9----30.03- 50.0-----
2024-04-13 04:48 pm- 0.0 2.9----30.05- 49.8-----
2024-04-13 04:42 pm NE 4.1 5.1----30.03- 49.3-----
2024-04-13 04:36 pmNNE 4.1 5.1----30.04- 48.6-----
2024-04-13 04:30 pm NE 1.0 6.0----30.05- 48.2-----
2024-04-13 04:24 pmNNW 2.9 7.0----30.05- 47.8-----
2024-04-13 04:18 pm NW 2.9 5.1----30.05- 47.5-----
2024-04-13 04:12 pmWNW 2.9 8.0----30.06- 47.7-----
2024-04-13 04:06 pmWNW 6.0 13.0----30.06- 47.7-----
2024-04-13 04:00 pm NW 6.0 12.0----30.06+0.05 47.5-----
2024-04-13 03:54 pmWNW 6.0 11.1----30.06- 47.7-----
2024-04-13 03:48 pm NW 7.0 15.0----30.06- 47.7-----
2024-04-13 03:42 pmWNW 8.0 13.0----30.06- 47.5-----
2024-04-13 03:36 pmWNW 7.0 13.0----30.05-------
2024-04-13 03:30 pmWNW 8.0 15.9----30.05-------
2024-04-13 03:24 pm NW 9.9 18.1----30.05-------
2024-04-13 03:18 pmWNW 8.9 15.9----30.05-------
2024-04-13 03:12 pmWNW 7.0 15.9----30.05-------
2024-04-13 03:06 pmWNW 11.1 19.0----30.04-------
2024-04-13 03:00 pmWNW 8.9 15.0----30.04+0.01------
2024-04-13 02:54 pmWNW 8.9 19.0----30.03-------
2024-04-13 02:48 pm NW 11.1 22.0----30.02-------
2024-04-13 02:42 pm W 8.9 15.0----30.02-------
2024-04-13 02:36 pm W 9.9 17.1----30.01- 50.2-----
2024-04-13 02:30 pmWSW 12.0 21.0----30.01- 50.2-----
2024-04-13 02:24 pm W 17.1 22.9----30.01- 50.7-----
2024-04-13 02:18 pmSSE 15.9 22.9----30.00- 54.0-----
2024-04-13 02:12 pm SE 7.0 14.0----30.00- 55.4-----
2024-04-13 02:06 pm SE 12.0 15.0----30.00- 55.2-----
2024-04-13 02:00 pm SE 12.0 17.1----30.00-0.03 55.2-----
2024-04-13 01:54 pm SE 15.0 19.0----30.00- 55.0-----
2024-04-13 01:48 pm SE 14.0 18.1----30.01- 55.0-----
2024-04-13 01:42 pmESE 15.0 21.0----30.01- 55.2-----
2024-04-13 01:36 pmESE 17.1 21.0----30.01- 55.0-----
2024-04-13 01:30 pmESE 15.0 19.0----30.01- 55.0-----
2024-04-13 01:24 pmESE 15.0 21.0----30.01- 55.2-----
2024-04-13 01:18 pmESE 17.1 21.0----30.01- 55.0-----
2024-04-13 01:12 pmESE 15.0 20.0----30.01- 55.0-----
2024-04-13 01:06 pmESE 19.0 24.1----30.01- 55.0-----
2024-04-13 01:00 pmESE 20.0 25.1----30.01+0.00 55.0-----
2024-04-13 12:54 pmESE 21.0 27.0----30.01- 55.0-----
2024-04-13 12:48 pmESE 21.0 25.1----30.01- 55.0-----
2024-04-13 12:42 pmESE 20.0 25.1----30.01- 54.9-----
2024-04-13 12:36 pmESE 17.1 22.0----30.01- 55.0-----
2024-04-13 12:30 pmESE 18.1 24.1----30.01- 55.0-----
2024-04-13 12:24 pmESE 18.1 22.9----30.02- 54.9-----
2024-04-13 12:18 pmESE 21.0 26.0----30.02- 54.5-----
2024-04-13 12:12 pmESE 22.9 27.0----30.02- 54.5-----
2024-04-13 12:06 pm SE 18.1 22.9----30.02- 54.5-----
2024-04-13 12:00 pm SE 17.1 22.9----30.03+0.04 55.0-----
2024-04-13 11:54 am SE 15.0 21.0----30.03- 55.0-----
2024-04-13 11:48 am SE 20.0 22.9----30.03- 55.8-----
2024-04-13 11:42 amESE 15.0 20.0----30.03- 57.0-----
2024-04-13 11:36 amESE 15.9 21.0----30.03- 57.0-----
2024-04-13 11:30 amESE 17.1 24.1----30.03- 57.2-----
2024-04-13 11:24 amESE 18.1 22.0----30.03- 57.2-----
2024-04-13 11:18 am E 13.0 15.9----30.03- 56.1-----
2024-04-13 11:12 am E 11.1 19.0----30.03- 55.8-----
2024-04-13 11:06 amESE 14.0 20.0----30.03- 55.4-----
2024-04-13 11:00 amESE 19.0 24.1----30.03+0.05 55.0-----
2024-04-13 10:54 am SE 19.0 25.1----30.03- 55.4-----
2024-04-13 10:48 amESE 12.0 26.0----30.02- 56.3-----
2024-04-13 10:42 am E 14.0 21.0----30.02- 56.1-----
2024-04-13 10:36 am E 8.9 19.0----30.02- 56.5-----
2024-04-13 10:30 amESE 13.0 19.0----30.02- 56.8-----
2024-04-13 10:24 am E 8.9 14.0----30.02- 56.8-----
2024-04-13 10:18 amESE 11.1 15.0----30.01- 56.7-----
2024-04-13 10:12 amESE 9.9 15.9----30.01- 56.5-----
2024-04-13 10:06 amESE 12.0 17.1----30.01- 56.5-----
2024-04-13 10:00 amESE 12.0 20.0----30.01+0.04 56.3-----
2024-04-13 09:54 amESE 15.9 20.0----30.01- 56.1-----
2024-04-13 09:48 amESE 19.0 22.0----30.01- 56.5-----
2024-04-13 09:42 amESE 18.1 22.0----30.01- 56.5-----
2024-04-13 09:36 am SE 19.0 24.1----30.00- 56.7-----
2024-04-13 09:30 am SE 20.0 24.1----30.00- 57.4-----
2024-04-13 09:24 amESE 17.1 20.0----30.00- 57.9-----
2024-04-13 09:18 amESE 14.0 20.0----29.99- 58.1-----
2024-04-13 09:12 amESE 13.0 18.1----29.99- 58.1-----
2024-04-13 09:06 amESE 11.1 15.9----29.99- 58.1-----
2024-04-13 09:00 amESE 11.1 18.1----29.99+0.03 58.1-----
2024-04-13 08:54 amESE 9.9 21.0----29.99- 57.9-----
2024-04-13 08:48 am E 15.0 20.0----29.99- 58.1-----
2024-04-13 08:42 amESE 12.0 20.0----29.99- 57.9-----
2024-04-13 08:36 amESE 13.0 21.0----29.99-------
2024-04-13 08:30 amESE 18.1 22.9----29.99-------
2024-04-13 08:24 amESE 12.0 14.0----29.99-------
2024-04-13 08:18 amESE 8.9 15.0----29.98-------
2024-04-13 08:12 am E 9.9 15.0----29.98-------
2024-04-13 08:06 am E 11.1 15.0----29.98-------
2024-04-13 08:00 am E 9.9 18.1----29.98+0.01------
2024-04-13 07:54 am E 14.0 19.0----29.98-------
2024-04-13 07:48 am E 13.0 18.1----29.98-------
2024-04-13 07:42 am E 13.0 18.1----29.98-------
2024-04-13 07:36 am E 15.0 19.0----29.98- 58.3-----
2024-04-13 07:30 am E 14.0 18.1----29.98- 58.1-----
2024-04-13 07:24 am E 14.0 20.0----29.98- 58.3-----
2024-04-13 07:18 am E 12.0 17.1----29.98- 58.1-----
2024-04-13 07:12 am E 14.0 18.1----29.98- 57.9-----
2024-04-13 07:06 am E 14.0 19.0----29.98- 57.9-----
2024-04-13 07:00 am E 12.0 18.1----29.98- 57.7-----
2024-04-13 06:54 am E 12.0 19.0----29.98- 57.7-----
2024-04-13 06:48 am E 13.0 18.1----29.97- 57.7-----
2024-04-13 06:42 am E 14.0 20.0----29.97- 57.7-----
2024-04-13 06:36 am E 13.0 18.1----29.97- 57.7-----
2024-04-13 06:30 am E 13.0 18.1----29.97- 57.7-----
2024-04-13 06:24 am E 14.0 19.0----29.97- 57.7-----
2024-04-13 06:18 am E 14.0 18.1----29.96- 57.7-----
2024-04-13 06:12 am E 13.0 19.0----29.96- 57.7-----
2024-04-13 06:06 am E 15.0 20.0----29.96- 57.7-----
2024-04-13 06:00 am E 14.0 18.1----29.96-0.03 57.7-----
2024-04-13 05:54 am E 15.0 20.0----29.96- 57.9-----
2024-04-13 05:48 am E 15.0 19.0----29.96- 57.7-----
2024-04-13 05:42 am E 13.0 17.1----29.96- 57.9-----
2024-04-13 05:36 am E 12.0 15.0----29.96- 57.9-----
2024-04-13 05:30 am E 15.0 21.0----29.96- 58.1-----
2024-04-13 05:24 am E 13.0 15.0----29.96- 57.9-----
2024-04-13 05:18 am E 12.0 20.0----29.97- 57.9-----
2024-04-13 05:12 am E 12.0 15.0----29.97- 57.7-----
2024-04-13 05:06 am E 11.1 15.0----29.97- 57.9-----
2024-04-13 05:00 am E 12.0 17.1----29.97-0.02 57.9-----
2024-04-13 04:54 am E 13.0 18.1----29.97- 57.7-----
2024-04-13 04:48 am E 14.0 18.1----29.97- 57.7-----
2024-04-13 04:42 am E 13.0 18.1----29.97- 57.7-----
2024-04-13 04:36 am E 17.1 20.0------ 58.1-----
2024-04-13 04:30 am E 15.9 20.0------ 58.1-----
2024-04-13 04:24 am E 12.0 15.0------ 57.7-----
2024-04-13 04:18 am E 12.0 15.9------ 57.7-----
2024-04-13 04:12 am E 14.0 15.9------ 58.1-----
2024-04-13 04:06 am E 14.0 18.1------ 58.1-----
2024-04-13 04:00 am E 14.0 17.1------ 58.1-----
2024-04-13 03:54 am E 14.0 17.1------ 58.3-----